Powrót do katalogu

YUKONGZHE

AktywnyŁącznośćSSO
NORAD 63992·PAYLOAD·🇨🇳 China
Ta nazwa satelity nie została jeszcze potwierdzona przez oficjalne źródła.

Wystrzelony May 14, 2025 z Jiuquan Satellite Launch Center

Loading…

Następne Przeloty (najbliższe 24 godziny)

TLE

ŚwieżeSource: Space-Track

Epoka: Sep 14, 2026, 12:52 UTC

1 63992U 25100L   26257.53629071  .00010203  00000-0  45632-3 0  9991
2 63992  97.3590 328.4580 0007840   3.5818 356.5472 15.21467988 74192

Śledź YUKONGZHE w czasie rzeczywistym z AllMySat

Download on the App Store